Zurück zum Katalog

WESTFORD NEEDLES

AktivPO
NORAD 19109·DEBRIS·🇺🇸 United States

Gestartet May 9, 1963 von Vandenberg Space Force Base

Loading…

Nächste Überflüge (nächste 24 Stunden)

TLE

AktuellSource: Space-Track

Epoche: Sep 14, 2026, 10:44 UTC

1 19109U 63014EJ  26257.44760877  .00000214  00000-0  39454-1 0  9992
2 19109  86.8494  57.8269 1297301  17.1720 346.9098  8.71732809466177

Verfolge WESTFORD NEEDLES in Echtzeit mit AllMySat

Download on the App Store